Flag for Netherlands Weather past 2 weeks in Wageningen, Netherlands

Now
64 °F

Partly sunny.


Feels Like: 64 °F
Forecast: 46 / 69 °F
Wind: 3 mph from West

Location: Deelen

Current Time: Sep 1, 2014 at 1:56:26 PM

Latest Report: Sep 1, 2014 at 1:25 PM


Visibility: N/A

Pressure: 30.12 "Hg

Humidity: 64%

Dew point: 52 °F

Location of WageningenLocation

Historic Weather in Wageningen — Graph

°F

Wageningen temperature yesterday

Maximum temperature yesterday: 64 °F (at 6:55 PM)
Minimum temperature yesterday: 52 °F (at 11:25 PM)
Average temperature yesterday: 58 °F

Past Weeks' High & Low Weather Summary

 TemperatureHumidityPressure
High70 °F (Aug 27, 3:55 PM)100% (Aug 17, 4:25 PM)30.12 "Hg (Aug 17, 4:25 PM)
Low43 °F (Aug 25, 12:55 AM)49% (Aug 23, 5:55 PM)29.62 "Hg (Aug 18, 2:55 AM)
Average56 °F87%29.91 "Hg
* Reported Aug 17 12:25 PM — Sep 1 12:55 PM, Wageningen, Weather by CustomWeather, © 2014

Note: Actual official high and low records may vary slightly from our data, if they occured in-between our weather recording intervals... More about our weather records

Advertising

Wageningen weather history for previous 24 hours

 ConditionsComfort  
Time TempWeatherWind HumidityBarometerVisibility
12:55 PM
Sep 1
64 °FPartly sunny.6 mph73%30.12 "HgN/A
12:25 PM64 °FMostly cloudy.8 mph68%30.12 "HgN/A
11:55 AM63 °FPartly sunny.5 mph73%30.12 "HgN/A
11:25 AM63 °FPartly sunny.6 mph77%30.12 "HgN/A
10:55 AM61 °FScattered clouds.6 mph83%30.12 "HgN/A
10:25 AM59 °FPartly sunny.6 mph88%30.12 "HgN/A
9:55 AM59 °FPassing clouds.5 mph94%30.12 "HgN/A
9:25 AM54 °FCool.1 mph100%30.12 "HgN/A
8:55 AM52 °FFog.1 mph100%30.12 "Hg5 mi
8:25 AM50 °FFog.1 mph100%30.12 "Hg1 mi
7:55 AM48 °FFog.1 mph100%30.09 "Hg0 mi
7:25 AM46 °FFog.1 mph100%30.09 "Hg0 mi
6:55 AM46 °FFog.1 mph100%30.09 "Hg0 mi
6:25 AM46 °FFog.1 mph100%30.09 "Hg1 mi
5:55 AM48 °FFog.1 mph94%30.09 "Hg0 mi
5:25 AM48 °FFog.1 mph94%30.09 "Hg1 mi
4:55 AM48 °FFog.No wind100%30.09 "Hg1 mi
4:25 AM48 °FFog.No wind100%30.09 "Hg0 mi
3:55 AM48 °FFog.1 mph100%30.09 "Hg0 mi
3:25 AM48 °FFog.1 mph100%30.07 "Hg0 mi
2:55 AM48 °FFog.1 mph100%30.07 "Hg0 mi
2:25 AM48 °FFog.No wind100%30.07 "Hg0 mi
1:55 AM48 °FFog.1 mph100%30.07 "Hg0 mi
1:25 AM50 °FFog.1 mph94%30.07 "Hg0 mi
12:55 AM52 °FFog.2 mph100%30.07 "Hg1 mi
12:25 AM50 °FFog.No wind100%30.07 "Hg2 mi
11:55 PM
Aug 31
52 °FFog.No wind94%30.07 "Hg1 mi
11:25 PM52 °FFog.No wind100%30.07 "Hg6 mi
10:55 PM54 °FPassing clouds.2 mph100%30.04 "HgN/A
10:25 PM54 °FCool.3 mph100%30.04 "HgN/A
9:55 PM55 °FPassing clouds.6 mph94%30.04 "HgN/A
9:25 PM55 °FScattered clouds.6 mph94%30.01 "HgN/A
8:55 PM57 °FPassing clouds.6 mph94%30.01 "HgN/A
8:25 PM59 °FScattered clouds.3 mph88%30.01 "HgN/A
7:55 PM59 °FMostly cloudy.3 mph88%29.98 "HgN/A
7:25 PM59 °FPartly sunny.7 mph82%29.98 "HgN/A
6:55 PM64 °FThunderstorms. Broken clouds.10 mph68%29.98 "HgN/A
6:25 PM63 °FMild.6 mph77%29.98 "HgN/A
5:55 PM61 °FPartly sunny.6 mph77%29.98 "HgN/A
5:25 PM63 °FPassing clouds.8 mph73%29.95 "HgN/A
4:55 PM61 °FBroken clouds.8 mph83%29.95 "HgN/A
4:25 PM63 °FBroken clouds.9 mph73%29.95 "HgN/A
3:55 PM63 °FPassing clouds.6 mph77%29.95 "HgN/A
3:25 PM61 °FThunderstorms. Broken clouds.7 mph83%29.95 "HgN/A
2:55 PM59 °FRain showers. Partly sunny.14 mph88%29.95 "Hg4 mi
2:25 PM61 °FOvercast.7 mph77%29.95 "HgN/A
1:55 PM63 °FBroken clouds.10 mph77%29.95 "HgN/A
1:25 PM63 °FScattered clouds.8 mph83%29.95 "HgN/A
Weather by CustomWeather, © 2014

See weather overviewHow to use our weather pages